When you browse on this site, cookies collect data to enhance your experience and personalize the content and advertising you see.
Visit our Privacy Policy to learn more. By continuing to use the site, you agree to this use of cookies and data.
  • In Hungary
  • List of Countries
  • For 7 days
  • Water Temperature
  • Satellite Maps
  • Weather Map
  • News
  • Weather Widgets
  • user-avatar
    Login

    Hourly Weather Aversa

    Today, 16 December, Sunday

    Time Temperature Precipitation Wind Pressure Humidity
    00:00 +3°C° 0 mm 3 mps 759 mmHg 67%
    01:00 +3°C° 0 mm 3 mps 759 mmHg 66%
    02:00 +3°C° 0 mm 3 mps 759 mmHg 66%
    03:00 +3°C° 0 mm 3 mps 759 mmHg 65%
    04:00 +3°C° 0 mm 3 mps 759 mmHg 65%
    05:00 +4°C° 0 mm 2 mps 759 mmHg 64%
    06:00 +4°C° 0 mm 2 mps 760 mmHg 64%
    07:00 +4°C° 0 mm 2 mps 760 mmHg 64%
    08:00 +5°C° 0 mm 2 mps 760 mmHg 61%
    09:00 +6°C° 0 mm 2 mps 760 mmHg 57%
    10:00 +9°C° 0 mm 1 mps 761 mmHg 54%
    11:00 +10°C° 0 mm 1 mps 761 mmHg 52%
    12:00 +10°C° 0 mm 1 mps 761 mmHg 51%
    13:00 +11°C° 0 mm 1 mps 760 mmHg 49%
    14:00 +11°C° 0 mm 1 mps 760 mmHg 53%
    15:00 +10°C° 0 mm 1 mps 760 mmHg 57%
    16:00 +10°C° 0 mm 1 mps 760 mmHg 61%
    17:00 +9°C° 0 mm 1 mps 760 mmHg 65%
    18:00 +9°C° 0 mm 1 mps 760 mmHg 68%
    19:00 +8°C° 0 mm 1 mps 760 mmHg 72%
    20:00 +8°C° 0 mm 1 mps 760 mmHg 73%
    21:00 +7°C° 0 mm 2 mps 760 mmHg 73%
    22:00 +8°C° 0 mm 3 mps 760 mmHg 74%
    23:00 +8°C° 0.2 mm 3 mps 759 mmHg 75%

    Tomorrow, 17 December, Monday

    Time Temperature Precipitation Wind Pressure Humidity
    00:00 +7°C° 0.2 mm 4 mps 758 mmHg 76%
    01:00 +7°C° 0.2 mm 5 mps 757 mmHg 76%
    02:00 +7°C° 1.2 mm 5 mps 757 mmHg 80%
    03:00 +7°C° 1.2 mm 5 mps 756 mmHg 84%
    04:00 +7°C° 1.2 mm 4 mps 755 mmHg 88%
    05:00 +8°C° 0.4 mm 4 mps 755 mmHg 91%
    06:00 +8°C° 0.4 mm 4 mps 755 mmHg 93%
    07:00 +10°C° 0.4 mm 4 mps 754 mmHg 95%
    08:00 +11°C° 0.3 mm 4 mps 754 mmHg 95%
    09:00 +11°C° 0.3 mm 4 mps 754 mmHg 94%
    10:00 +12°C° 0.3 mm 4 mps 754 mmHg 93%
    11:00 +13°C° 0.3 mm 5 mps 754 mmHg 86%
    12:00 +14°C° 0.3 mm 5 mps 754 mmHg 79%
    13:00 +14°C° 0.3 mm 6 mps 753 mmHg 72%
    14:00 +14°C° 0.1 mm 6 mps 754 mmHg 73%
    15:00 +13°C° 0.1 mm 6 mps 754 mmHg 74%
    16:00 +11°C° 0.1 mm 6 mps 754 mmHg 74%
    17:00 +11°C° 0.2 mm 6 mps 755 mmHg 76%
    18:00 +10°C° 0.2 mm 6 mps 755 mmHg 78%
    19:00 +9°C° 0.2 mm 5 mps 756 mmHg 80%
    20:00 +8°C° 0 mm 5 mps 756 mmHg 80%
    21:00 +8°C° 0 mm 5 mps 757 mmHg 79%
    22:00 +8°C° 0 mm 5 mps 757 mmHg 79%
    23:00 +7°C° 0 mm 5 mps 758 mmHg 77%

    Day after tomorrow, 18 December, Tuesday

    Time Temperature Precipitation Wind Pressure Humidity
    00:00 +7°C° 0 mm 5 mps 758 mmHg 76%
    01:00 +7°C° 0 mm 4 mps 759 mmHg 75%
    02:00 +6°C° 0 mm 5 mps 759 mmHg 74%
    03:00 +6°C° 0 mm 5 mps 759 mmHg 73%
    04:00 +6°C° 0 mm 5 mps 760 mmHg 72%
    05:00 +6°C° 0 mm 4 mps 760 mmHg 73%
    06:00 +6°C° 0 mm 4 mps 761 mmHg 74%
    07:00 +6°C° 0 mm 4 mps 761 mmHg 74%
    08:00 +7°C° 0 mm 4 mps 762 mmHg 71%
    09:00 +8°C° 0 mm 4 mps 762 mmHg 67%
    10:00 +9°C° 0 mm 5 mps 763 mmHg 64%
    11:00 +10°C° 0 mm 4 mps 763 mmHg 62%
    12:00 +11°C° 0 mm 4 mps 763 mmHg 60%
    13:00 +11°C° 0 mm 4 mps 763 mmHg 58%
    14:00 +11°C° 0 mm 4 mps 763 mmHg 60%
    15:00 +10°C° 0 mm 3 mps 763 mmHg 63%
    16:00 +10°C° 0 mm 3 mps 764 mmHg 65%
    17:00 +9°C° 0 mm 2 mps 764 mmHg 68%
    18:00 +8°C° 0 mm 2 mps 764 mmHg 70%
    19:00 +7°C° 0 mm 2 mps 765 mmHg 73%
    20:00 +7°C° 0 mm 2 mps 765 mmHg 72%
    21:00 +7°C° 0 mm 2 mps 765 mmHg 70%
    22:00 +7°C° 0 mm 2 mps 765 mmHg 69%
    23:00 +6°C° 0 mm 2 mps 765 mmHg 67%

    19 December, Wednesday

    Time Temperature Precipitation Wind Pressure Humidity
    00:00 +6°C° 0 mm 2 mps 765 mmHg 65%
    01:00 +6°C° 0 mm 2 mps 765 mmHg 63%
    02:00 +6°C° 0 mm 2 mps 765 mmHg 62%
    03:00 +7°C° 0 mm 1 mps 764 mmHg 60%
    04:00 +7°C° 0 mm 1 mps 764 mmHg 59%
    05:00 +7°C° 0 mm 1 mps 764 mmHg 59%
    06:00 +7°C° 0 mm 1 mps 765 mmHg 59%
    07:00 +7°C° 0 mm 1 mps 765 mmHg 58%
    08:00 +8°C° 0 mm 1 mps 765 mmHg 56%
    09:00 +9°C° 0 mm 1 mps 765 mmHg 53%
    10:00 +11°C° 0 mm 1 mps 765 mmHg 50%
    11:00 +12°C° 0 mm 2 mps 764 mmHg 51%
    12:00 +12°C° 0 mm 2 mps 764 mmHg 51%
    13:00 +13°C° 0 mm 2 mps 764 mmHg 52%
    14:00 +13°C° 0 mm 2 mps 763 mmHg 57%
    15:00 +12°C° 0 mm 1 mps 763 mmHg 62%
    16:00 +11°C° 0 mm 1 mps 763 mmHg 67%
    17:00 +11°C° 0 mm 1 mps 763 mmHg 70%
    18:00 +10°C° 0 mm 1 mps 763 mmHg 72%
    19:00 +9°C° 0 mm 1 mps 763 mmHg 75%
    20:00 +8°C° 0 mm 2 mps 763 mmHg 76%
    21:00 +8°C° 0 mm 2 mps 763 mmHg 77%
    22:00 +8°C° 0 mm 2 mps 763 mmHg 77%
    23:00 +8°C° 0 mm 2 mps 762 mmHg 79%

    20 December, Thursday

    Time Temperature Precipitation Wind Pressure Humidity
    00:00 +8°C° 0 mm 2 mps 762 mmHg 81%
    01:00 +8°C° 0 mm 2 mps 762 mmHg 83%
    02:00 +8°C° 0 mm 2 mps 761 mmHg 83%
    03:00 +8°C° 0 mm 3 mps 761 mmHg 84%
    04:00 +8°C° 0 mm 3 mps 761 mmHg 85%
    05:00 +8°C° 0.2 mm 3 mps 760 mmHg 85%
    06:00 +8°C° 0.2 mm 4 mps 760 mmHg 84%
    07:00 +8°C° 0.2 mm 5 mps 760 mmHg 84%
    08:00 +8°C° 1.3 mm 5 mps 759 mmHg 83%
    09:00 +9°C° 1.3 mm 6 mps 759 mmHg 83%
    10:00 +9°C° 1.3 mm 6 mps 759 mmHg 83%
    11:00 +10°C° 1.2 mm 6 mps 759 mmHg 84%
    12:00 +10°C° 1.2 mm 6 mps 758 mmHg 85%
    13:00 +11°C° 1.2 mm 6 mps 758 mmHg 86%
    14:00 +11°C° 0 mm 6 mps 758 mmHg 84%
    15:00 +11°C° 0 mm 6 mps 758 mmHg 82%
    16:00 +11°C° 0 mm 6 mps 758 mmHg 80%
    17:00 +11°C° 0.1 mm 6 mps 759 mmHg 80%
    18:00 +10°C° 0.1 mm 7 mps 759 mmHg 81%
    19:00 +10°C° 0.1 mm 7 mps 759 mmHg 81%
    20:00 +9°C° 0.1 mm 7 mps 760 mmHg 81%
    21:00 +9°C° 0.1 mm 7 mps 760 mmHg 81%
    22:00 +9°C° 0.1 mm 7 mps 760 mmHg 81%
    23:00 +9°C° 0.1 mm 7 mps 760 mmHg 82%

    21 December, Friday

    Time Temperature Precipitation Wind Pressure Humidity
    00:00 +8°C° 0.1 mm 6 mps 760 mmHg 82%
    01:00 +8°C° 0.1 mm 6 mps 760 mmHg 83%
    02:00 +8°C° 0.1 mm 5 mps 760 mmHg 84%
    03:00 +8°C° 0.1 mm 4 mps 760 mmHg 84%
    04:00 +8°C° 0.1 mm 4 mps 761 mmHg 85%
    05:00 +7°C° 0 mm 4 mps 761 mmHg 86%
    06:00 +8°C° 0 mm 3 mps 761 mmHg 86%
    07:00 +8°C° 0 mm 3 mps 762 mmHg 86%
    08:00 +9°C° 0 mm 3 mps 762 mmHg 81%
    09:00 +10°C° 0 mm 3 mps 762 mmHg 77%
    10:00 +11°C° 0 mm 3 mps 762 mmHg 73%
    11:00 +12°C° 0 mm 3 mps 762 mmHg 68%
    12:00 +12°C° 0 mm 3 mps 762 mmHg 64%
    13:00 +13°C° 0 mm 3 mps 762 mmHg 59%
    14:00 +13°C° 0 mm 3 mps 763 mmHg 61%
    15:00 +13°C° 0 mm 2 mps 763 mmHg 63%
    16:00 +13°C° 0 mm 2 mps 763 mmHg 65%
    17:00 +12°C° 0 mm 2 mps 763 mmHg 68%
    18:00 +10°C° 0 mm 2 mps 764 mmHg 71%
    19:00 +9°C° 0 mm 2 mps 764 mmHg 73%
    20:00 +9°C° 0 mm 2 mps 764 mmHg 74%
    21:00 +8°C° 0 mm 2 mps 765 mmHg 74%
    22:00 +9°C° 0 mm 1 mps 765 mmHg 75%
    23:00 +9°C° 0 mm 1 mps 765 mmHg 75%
    Show more